STARLINK-32361, 61933

Orbit data source: Space-Track

STARLINK-32361, 61933 is a payload satellite owned by SpaceX/Seattle (US) in LEO that was launched on Mon, 11 Nov 2024 UTC via an FALCON 9 launch vehicle from the Air Force Eastern Test Range (AFETR). Payloads include a variety of satellites, spacecraft, and rockets equipped with specific instruments for various scientific and technological missions. These include communications satellites like Starlink; space stations such as the ISS; scientific satellites like the Hubble; Earth observation satellites from companies like Planet Labs, Umbra, and HawkEye 360; GPS; miniature CubeSats for education and research; and military/defense satellites.

Loading next visibility...
STARLINK-32361 details
Identifier
61933, 2024-207X
Orbit
LEO
Last TLE update8 hours ago
Origin
Flag of USSpaceX/Seattle (US)
ManufacturerSpaceX/Seattle
MissionOperational spacecraft
Bus & MotorSTARLINK V2M, Unknown motor
Mass730 kg wet, ~700 kg dry
Launch date (UTC)
2024-11-11 (1 week ago)
Launch vehicle
FALCON 9
Launch site
Air Force Eastern Test Range (AFETR)
Object type
Payload
Rocket body
Debris
Shape & HBRUnknown
Radar Cross SectionRCS unknown

Expand to show TLE details & history

TLE from 8 hours ago
0 STARLINK-32361
1 61933U 24207X   24325.91668981 -.00869413  23318-3 -25787-2 0  9995
2 61933  43.0020  94.4142 0001939 286.4329 260.9255 15.91570066  2554
Epoch: 2024-11-20T22:00Z
Definitive object data (Epoch: 2024-11-20T22:00:01.999Z)
Latitude-5.08614°
Longitude-110.55458°
Altitude298.662 km
Speed7.73 km/s
True Right ascension18h 39m 26s
True Declination-5° 03' 14"
Sunlit
Object was in daylight at TLE epoch
Visualization TLE readout
Latitude28.26252°
Longitude96.78901°
Altitude300.45 km
Speed7.732 km/s
Apparent Right ascension11h 31m 34s
Apparent Declination-7° 58' 31"
Sunlit
Object is in full shadow
Visualization observer readout
Local Sidereal Time03:28:48
Azimuth75.644° E
Elevation-28.473°
Doppler factor1
Orbital elements
Apogee altitude301.182 km
Perigee altitude298.592 km
Semi-major axis6,678.024 km
Eccentricity0.0001939
Inclination43.002°
RAAN94.4142°
Arg. of periapsis286.4329°
True anomaly260.90356°
Mean anomaly260.9255°
Eccentric anomaly260.91453°
Mean motion3.97714 °/min
BSTAR-0.0025787
Orbital period90.52 mins
Loading maneuver chart data...
Loading historical data...
Loading historical data...
Loading historical data...
Loading historical data...
Loading historical data...
Loading historical data...
Loading historical data...

STARLINK-32361 Visibility forecast

Observer location: undefined°, undefined

Span
Click to sort rows by Start time (UTC) header in descending order
Start Az.
Max El. time (UTC)
Max El. Az.
Max El.
End time (UTC)
End Az.
4 mins2024-11-21 12:30:16.225Z227.928° WSW2024-11-21 12:32:16.225Z185.174° SSW31.516°2024-11-21 12:34:16.225Z89.683° E
|